| time (UTC) | temp C | wind direction | speed KPH | gust KPH | rain 1hr cm | rain 24hr cm | rain mn cm | humidity % | barometer mb |
| 20260504081517 | 18 | 139 | 1.6 | 12.9 | 0.00 | 0.00 | 0.00 | 57 | 983.8 |
| 20260504044533 | -17 | 0.0 | 0.0 | 0.00 | 0.00 | 0.00 | 984.1 | ||
| 20260504043029 | -17 | 0.0 | 0.0 | 0.00 | 0.00 | 0.00 | 983.7 | ||
| 20260504041532 | -17 | 0.0 | 0.0 | 0.00 | 0.00 | 0.00 | 983.8 | ||
| 20260504040019 | -17 | 275 | 0.0 | 0.0 | 0.00 | 0.00 | 0.00 | 983.7 | |
| 20260504034519 | 3 | 272 | 0.0 | 0.0 | 0.00 | 0.00 | 0.00 | 94 | 983.4 |
| 20260504033015 | 3 | 272 | 0.0 | 0.0 | 0.00 | 0.00 | 0.00 | 93 | 983.5 |
| 20260504031513 | 4 | 272 | 0.0 | 0.0 | 0.00 | 0.00 | 0.00 | 93 | 983.4 |
| 20260504030010 | 5 | 272 | 0.0 | 0.0 | 0.00 | 0.00 | 0.00 | 93 | 983.4 |
| 20260504024508 | 5 | 272 | 0.0 | 0.0 | 0.00 | 0.00 | 0.00 | 93 | 983.6 |
| 20260504023007 | 5 | 272 | 0.0 | 0.0 | 0.00 | 0.00 | 0.00 | 93 | 983.6 |
| 20260504021505 | 5 | 272 | 0.0 | 0.0 | 0.00 | 0.00 | 0.00 | 93 | 983.7 |
| 20260504020005 | 5 | 272 | 0.0 | 0.0 | 0.00 | 0.00 | 0.00 | 93 | 983.7 |
| 20260504014504 | 5 | 272 | 0.0 | 0.0 | 0.00 | 0.00 | 0.00 | 93 | 983.8 |
| 20260504013003 | 5 | 272 | 0.0 | 0.0 | 0.00 | 0.00 | 0.00 | 92 | 983.7 |
| 20260504011501 | 5 | 272 | 0.0 | 1.6 | 0.00 | 0.00 | 0.00 | 93 | 983.6 |
| 20260504010000 | 5 | 272 | 0.0 | 1.6 | 0.00 | 0.00 | 0.00 | 92 | 983.8 |
| 20260504004600 | 5 | 272 | 0.0 | 0.0 | 0.00 | 0.00 | 0.00 | 92 | 983.6 |
| 20260504003058 | 5 | 272 | 0.0 | 0.0 | 0.00 | 0.00 | 0.00 | 92 | 983.7 |
| 20260504001601 | 5 | 272 | 0.0 | 0.0 | 0.00 | 0.00 | 0.00 | 92 | 983.8 |
| 20260504000056 | 6 | 272 | 0.0 | 1.6 | 0.00 | 0.00 | 0.00 | 91 | 983.8 |
| 20260503234623 | 6 | 272 | 0.0 | 0.0 | 0.00 | 0.00 | 0.00 | 91 | 983.9 |
| 20260503233053 | 6 | 269 | 0.0 | 1.6 | 0.00 | 0.00 | 0.00 | 91 | 983.9 |
| 20260503231552 | 6 | 265 | 0.0 | 0.0 | 0.00 | 0.00 | 0.00 | 91 | 984.1 |
| 20260503230051 | 6 | 265 | 0.0 | 0.0 | 0.00 | 0.00 | 0.00 | 90 | 984.1 |
| 20260503224548 | 6 | 276 | 0.0 | 0.0 | 0.00 | 0.00 | 0.00 | 89 | 984.2 |
| 20260503223047 | 6 | 276 | 0.0 | 0.0 | 0.00 | 0.00 | 0.00 | 90 | 984.2 |
| 20260503221555 | 6 | 276 | 0.0 | 1.6 | 0.00 | 0.00 | 0.00 | 89 | 984.3 |
| 20260503220045 | 6 | 276 | 0.0 | 1.6 | 0.00 | 0.00 | 0.00 | 89 | 984.3 |
| 20260503214543 | 6 | 281 | 0.0 | 1.6 | 0.00 | 0.00 | 0.00 | 89 | 984.3 |
| 20260503213043 | 7 | 281 | 0.0 | 0.0 | 0.00 | 0.00 | 0.00 | 87 | 984.2 |
| 20260503211541 | 7 | 281 | 0.0 | 1.6 | 0.00 | 0.00 | 0.00 | 87 | 984.0 |
| 20260503210041 | 7 | 270 | 0.0 | 1.6 | 0.00 | 0.00 | 0.00 | 87 | 984.1 |
| 20260503204544 | 7 | 269 | 0.0 | 1.6 | 0.00 | 0.00 | 0.00 | 86 | 984.1 |
| 20260503203053 | 8 | 276 | 0.0 | 1.6 | 0.00 | 0.00 | 0.00 | 85 | 984.0 |
| 20260503201540 | 8 | 274 | 0.0 | 0.0 | 0.00 | 0.00 | 0.00 | 84 | 983.8 |
| 20260503200039 | 8 | 274 | 0.0 | 0.0 | 0.00 | 0.00 | 0.00 | 83 | 983.7 |
| 20260503194541 | 9 | 274 | 0.0 | 1.6 | 0.00 | 0.00 | 0.00 | 82 | 983.8 |
| 20260503193038 | 10 | 271 | 0.0 | 1.6 | 0.00 | 0.00 | 0.00 | 81 | 983.7 |
| 20260503191537 | 10 | 260 | 0.0 | 1.6 | 0.00 | 0.00 | 0.00 | 80 | 983.6 |
| 20260503190036 | 10 | 260 | 0.0 | 1.6 | 0.00 | 0.00 | 0.00 | 79 | 983.4 |
| 20260503184537 | 11 | 260 | 0.0 | 0.0 | 0.00 | 0.00 | 0.00 | 78 | 983.3 |
| 20260503183036 | 12 | 260 | 0.0 | 0.0 | 0.00 | 0.00 | 0.00 | 76 | 983.3 |
| 20260503181535 | 12 | 260 | 0.0 | 1.6 | 0.00 | 0.00 | 0.00 | 71 | 983.1 |
| 20260503180034 | 13 | 124 | 0.0 | 3.2 | 0.00 | 0.00 | 0.00 | 65 | 983.1 |
| 20260503174533 | 15 | 140 | 0.0 | 1.6 | 0.00 | 0.00 | 0.00 | 63 | 982.9 |
| 20260503173037 | 15 | 220 | 0.0 | 8.0 | 0.00 | 0.00 | 0.00 | 57 | 982.7 |
| 20260503171538 | 16 | 273 | 1.6 | 9.7 | 0.00 | 0.00 | 0.00 | 58 | 982.5 |